Tracking 30298 objects as of 26-Apr-2025
HD Live streaming from Space Station
objects crossing your sky now

SL-3 DEB

Track SL-3 DEB now!
10-day predictions


NORAD ID: 20348
Int'l Code: 1972-049C
Perigee: 857.5 km
Apogee: 929.5 km
Inclination: 81.2 °
Period: 102.7 minutes
Semi major axis: 7264 km
RCS: 0.0122 m2 (small)
Launch date: June 30, 1972
Source: Commonwealth of Independent States (former USSR) (CIS)
Launch site: PLESETSK MISSILE AND SPACE COMPLEX (PKMTR)

Note: This is SATELLITE DEBRIS
Your satellite tracking list
Your tracking list is empty




NASA's NSSDC Master Catalog

Two Line Element Set (TLE):
1 20348U 72049C   25116.44658014  .00000150  00000-0  88625-4 0  9995
2 20348  81.2358 101.1529 0049562 113.6368 247.0013 14.02156995699811
Source of the keplerian elements: AFSPC